Вернуться в каталог

COSMOS 2251 DEB

АктивенLEO
NORAD 33917·DEBRIS·🇷🇺 Russia

Запущен Jun 16, 1993 с Plesetsk Cosmodrome

Loading…

Ближайшие Пролёты (ближайшие 24 часа)

TLE

СвежийSource: Space-Track

Эпоха: Sep 14, 2026, 15:25 UTC

1 33917U 93036DW  26257.64249383  .00001060  00000-0  83179-3 0  9993
2 33917  74.1069  29.6983 0332628  65.3712 298.1669 13.70026081875118

Отслеживайте COSMOS 2251 DEB в реальном времени с AllMySat

Download on the App Store